SCP
0 0 0 0 0 0 0 0 0 0 0 0 0 0 0 0 0 0 0 0 0 0 0 0 0 0 0 0 0 0 0 0 0 0 0 0 0 0 0 0 0 0 0 0 0 0 0
0 0 0 0 0 0 0 0 0 0 0 0 0 0 0 0 0 0 0 0 0 0 0 0 0 0 0 0 0 0 0 0 0 0 0 0 0 0 0 0 0 0 0 0 0 0 0
0 0 0 0 0 0 0 0 0 0 0 0 0 0 0 0 0 0 0 0 0 0 0 0 0 0 0 0 0 0 0 0 0 0 0 0 0 0 0 0 0 0 0 0 0 0 0
0 0 0 0 0 0 0 0 0 0 0 0 0 0 0 0 0 0 0 0 0 0 0 0 0 0 0 0 0 0 0 0 0 0 0 0 0 0 0 0 0 0 0 0 0 0 0
0 0 0 0 0 0 0 0 0 0 0 0 0 0 0 0 0 0 0 0 0 0 0 0 0 0 0 -0 0 -0 -0 0 0 0 0 0 0 0 0 0 0 0 0 0 0 0 0
0 0 0 0 0 0 0 0 0 0 0 0 0 0 0 0 0 0 0 0 0 0 0 0 0 0 -0 -0 -0 0 0 0 0 0 0 0 0 0 0 0 0 0 0 0 0 0 0
0 0 0 0 0 0 0 0 0 0 0 0 0 0 0 0 0 0 0 0 0 0 0 0 -0 -0 0 -0 0 -0 0 0 0 0 0 0 0 0 0 0 0 0 0 0 0 0 0
0 0 0 0 0 0 0 0 0 0 0 0 0 0 0 0 0 0 0 0 0 0 0 0 -0 -0 -0 0 0 0 0 0 0 0 0 0 0 0 0 0 0 0 0 0 0 0 0
0 0 0 0 0 0 0 0 0 0 0 0 0 0 -0 0 -0 0 0 0 0 0 0 0 0 -0 -0 -0 0 0 0 0 0 0 0 0 0 0 0 0 0 0 0 0 0 0 0
0 0 0 0 0 0 0 0 0 0 0 0 0 0 0 -0 -0 0 0 0 0 0 0 0 0 0 -0 0 -0 -0 0 0 0 0 0 0 0 0 0 0 0 0 0 0 0 0 0
0 0 0 0 0 0 0 0 0 0 0 0 0 -0 -0 -0 0 0 0 0 0 0 0 0 0 0 -0 0 -0 0 0 0 0 0 0 0 0 0 0 0 0 0 0 0 0 0 0
0 0 0 0 0 0 0 0 0 0 0 0 0 -0 -0 0 0 0 0 0 0 0 0 0 0 0 -0 -0 -0 -0 0 0 0 -0 0 0 0 0 0 0 0 0 0 0 0 0 0
0 0 0 0 0 0 0 0 0 0 0 0 -0 -0 0 0 0 0 0 0 0 0 0 0 0 0 0 0 0 0 0 0 0 0 0 0 0 0 0 0 0 0 0 0 0 0 0
0 0 0 0 0 0 0 0 0 0 0 0 -0 -0 0 0 0 0 0 0 0 0 0 0 0 0 0 0 -0 0 0 0 0 0 -0 0 0 0 0 0 0 0 0 0 0 0 0
0 0 0 0 0 0 0 0 0 0 0 0 -0 0 0 0 0 0 0 0 0 0 0 0 0 0 -0 0 0 0 0 -0 0 0 0 0 -0 0 0 0 0 0 0 -0 0 0 0
0 0 0 0 0 0 0 0 0 0 0 0 0 -0 0 0 0 0 0 0 0 0 0 0 0 -0 0 -0 -0 0 0 0 0 0 0 0 0 -0 0 0 0 0 0 0 0 0 0
0 0 0 0 0 0 0 0 0 0 0 0 0 0 0 -0 0 0 0 0 0 0 -0 -0 0 0 -0 -0 0 0 -0 0 0 0 -0 0 0 0 0 0 0 0 0 0 0 0 0
0 0 0 0 0 0 0 0 0 0 0 0 0 0 0 0 0 0 0 0 0 0 -0 -0 -0 -0 0 -0 -0 0 0 0 0 0 0 0 0 0 -0 0 0 0 0 0 0 0 0
0 0 0 0 0 0 0 0 0 0 0 0 -0 0 0 0 0 0 0 -0 -0 -0 0 -0 -0 -0 -0 -0 -0 0 0 0 0 0 0 0 0 0 0 0 0 0 0 0 0 0 0
0 0 0 0 0 0 0 0 0 0 0 0 0 0 0 0 0 0 0 -0 -0 0 -0 -0 -0 -0 -0 0 0 -0 -0 0 0 0 0 0 0 0 0 0 0 0 0 0 0 0 0
0 0 0 0 0 0 0 0 0 0 0 0 0 0 0 0 0 0 0 0 -0 -0 -0 -0 -0 -0 0 0 0 -0 0 0 0 0 0 0 0 -0 -0 0 0 0 0 0 0 0 -0
0 0 0 0 0 0 0 0 0 0 0 0 0 0 0 0 0 0 0 0 0 -0 0 -0 -0 -0 0 0 0 0 0 0 0 0 0 0 0 0 -0 -0 0 0 0 0 -0 0 -0
0 0 0 0 0 0 0 0 0 0 0 0 0 0 0 0 0 0 0 -0 0 0 0 -0 -0 0 0 0 0 0 0 0 0 0 0 0 0 0 0 0 0 0 0 -0 0 0 0
0 0 0 0 0 0 0 0 0 0 0 0 0 0 0 0 0 0 -0 -0 -0 0 0 -0 0 0 0 0 0 0 0 0 0 0 0 0 0 0 0 0 0 0 0 0 0 0 0
0 0 0 0 0 0 0 0 0 0 0 0 0 0 0 0 0 0 0 -0 -0 -0 0 0 0 0 0 0 0 0 0 0 0 0 0 0 0 0 0 0 0 0 0 0 0 0 0
0 0 0 0 0 0 0 0 0 0 0 0 0 0 0 0 0 0 0 0 -0 -0 0 0 0 0 0 0 0 0 0 0 0 0 0 0 0 0 -0 0 0 0 0 0 0 0 0
0 0 0 0 0 0 0 0 0 0 0 0 0 0 0 0 0 0 0 0 -0 -0 0 0 0 0 0 0 0 0 0 0 0 0 0 0 0 0 0 0 -0 0 0 0 0 0 0
0 0 0 0 0 0 0 0 0 0 0 0 0 0 0 0 0 0 0 -0 -0 -0 0 0 0 0 0 0 0 0 0 0 0 0 0 0 0 0 0 0 0 0 0 0 0 -0 0
0 0 0 0 0 0 0 0 0 0 0 0 0 0 0 0 0 -0 -0 0 -0 0 0 0 0 0 0 0 0 0 0 0 0 0 0 0 0 0 0 0 0 0 0 0 0 0 0
Wind_Speed_500mb
48 47 46 47 49 49 47 47 48 50 51 50 51 52 51 50 48 48 47 44 43 42 43 43 45 36 25 34 52 18 35 12 8 35 44 49 55 54 53 55 62 63 54 73 71 66 33
50 49 50 51 50 51 52 51 51 53 54 55 56 56 56 57 55 54 50 46 48 45 44 40 34 30 34 47 38 41 44 34 30 39 43 52 49 56 48 56 55 60 70 58 78 65 40
55 53 53 52 53 53 55 54 55 57 58 58 60 60 61 60 60 57 52 49 47 48 48 44 39 33 47 63 22 25 25 36 33 35 48 48 56 51 60 48 67 69 55 59 59 54 36
59 57 55 54 55 57 59 60 62 64 64 66 70 72 69 66 62 59 56 54 53 51 44 38 32 36 47 30 44 59 28 29 25 28 34 35 49 51 57 49 64 57 55 52 53 50 53
61 60 59 59 59 60 61 64 66 67 72 76 77 77 74 67 64 61 56 54 54 46 41 32 28 32 48 26 42 53 58 48 32 25 27 31 47 50 50 47 46 44 45 60 58 59 45
63 63 62 62 61 61 64 66 68 72 77 82 82 78 74 63 60 54 46 43 39 22 15 19 30 19 49 34 29 32 51 46 45 33 27 37 42 32 40 43 49 58 63 60 55 63 60
67 66 65 65 66 67 68 69 72 76 83 85 82 75 64 65 60 52 37 24 18 13 21 21 27 35 20 18 16 22 41 41 34 43 33 51 31 47 62 59 59 54 58 58 58 48 60
68 68 68 67 67 69 70 72 74 81 85 84 74 60 67 70 48 27 11 5 8 11 17 29 31 38 32 17 8 10 40 32 28 35 39 38 41 50 51 53 57 57 63 59 59 50 57
70 69 69 68 68 69 72 73 76 81 83 78 61 63 65 50 37 28 16 6 7 9 9 10 25 37 30 32 10 20 48 30 28 35 42 37 44 54 52 51 51 50 56 59 55 50 54
74 71 70 70 70 72 72 72 77 81 82 68 58 62 57 29 20 20 14 10 6 6 9 11 17 11 28 8 3 22 33 30 19 39 36 26 42 40 48 51 50 46 44 56 46 41 29
77 73 70 71 72 73 73 73 78 81 79 60 50 56 46 45 19 25 17 10 12 7 4 13 8 6 23 2 17 11 29 10 31 36 30 31 39 40 44 46 47 31 47 41 40 47 41
76 75 72 72 74 76 75 77 79 79 77 56 42 51 44 30 16 24 17 13 14 6 12 10 9 10 27 4 17 36 13 21 42 44 42 20 40 30 28 35 38 18 38 27 32 31 30
73 76 74 72 74 77 77 79 80 79 74 52 38 44 48 26 28 24 20 20 7 11 21 14 8 14 16 17 27 23 20 20 23 34 25 29 37 32 31 37 35 31 38 26 23 21 24
72 75 76 73 75 77 78 77 80 81 71 51 29 32 31 34 28 23 23 6 14 21 11 7 11 24 10 15 39 36 27 19 37 36 28 30 40 43 41 41 38 47 46 27 38 26 32
72 76 79 76 74 77 78 80 81 82 72 49 26 20 28 31 26 24 22 15 12 11 17 19 18 16 15 18 18 29 32 19 16 30 15 30 34 48 40 33 38 42 47 42 38 42 33
72 76 80 80 76 76 79 80 80 82 75 44 28 14 38 31 24 26 13 11 16 19 22 9 8 8 13 25 33 27 12 25 24 13 11 12 28 37 46 45 43 36 37 10 20 38 24
70 75 78 80 79 75 79 78 79 82 76 32 24 14 39 31 23 14 7 14 17 32 28 8 14 8 25 24 30 32 32 20 24 18 31 15 29 26 42 36 35 30 26 21 22 10 29
69 73 75 79 79 77 76 76 74 78 80 39 23 10 37 35 22 15 14 20 22 28 30 10 15 20 23 26 26 21 19 12 17 15 6 5 15 26 44 31 34 32 40 26 12 13 4
67 71 75 78 78 75 74 73 70 70 63 46 28 12 20 43 13 16 23 28 19 26 20 16 13 18 25 16 16 14 15 20 20 22 6 14 16 27 32 24 34 29 28 23 14 11 11
69 72 77 75 75 71 71 69 66 64 49 31 22 11 13 11 22 19 23 24 25 21 13 21 13 17 27 23 17 18 22 23 25 18 12 11 17 29 23 31 31 36 35 31 19 9 14
68 72 72 73 70 68 65 64 62 59 46 38 21 11 10 12 16 25 21 22 25 23 12 20 8 25 18 12 21 24 21 18 33 10 9 10 25 29 23 32 35 36 36 38 30 28 28
67 67 71 64 65 64 59 59 58 56 39 21 24 16 22 32 26 25 13 23 26 28 8 16 19 34 24 9 17 12 21 25 23 16 17 4 10 12 27 33 33 30 33 39 35 35 31
69 66 66 63 61 60 54 50 52 50 44 19 28 18 13 29 14 15 16 24 23 25 6 13 25 25 19 18 30 29 23 34 20 22 19 14 12 20 18 38 37 34 36 36 31 30 19
67 62 58 57 55 57 51 44 44 40 35 20 20 21 17 16 19 19 26 27 23 20 15 24 17 14 11 41 41 29 31 26 18 23 24 19 20 4 18 22 22 13 23 33 33 25 22
63 56 52 54 52 52 49 38 38 32 28 19 18 15 13 16 35 23 24 27 28 22 18 18 20 17 35 31 13 12 14 18 30 31 18 25 21 13 7 17 9 22 14 14 14 20 1
58 55 53 49 51 46 43 35 32 29 22 19 16 10 14 22 4 32 31 32 13 17 14 9 27 22 15 7 10 14 12 20 24 20 27 25 19 19 23 10 3 3 26 8 13 8 21
53 50 49 50 45 46 39 35 29 27 20 19 19 26 11 19 27 25 27 23 21 12 10 18 15 12 9 5 10 12 17 30 24 39 28 22 23 20 19 7 19 14 23 16 19 10 10
52 51 50 48 42 41 33 31 28 26 18 17 20 29 17 20 63 30 27 37 28 22 5 14 17 4 4 4 6 5 8 13 12 32 41 26 24 21 24 19 16 22 16 5 15 25 27
58 53 48 47 40 38 36 32 31 27 17 15 23 26 35 35 50 61 57 54 53 47 23 6 11 14 5 5 5 8 7 6 18 11 11 29 25 20 17 10 14 21 26 25 22 33 35
Wind_Direction_500mb
18 14 11 8 7 6 3 359 355 352 347 341 337 333 327 320 315 307 300 290 286 285 286 285 276 271 282 245 242 250 300 343 167 199 211 211 216 217 221 218 219 223 223 226 238 236 221
17 14 13 11 7 4 1 1 356 351 347 342 338 335 332 327 322 314 306 297 284 278 276 277 279 267 252 252 253 257 252 251 230 218 216 216 220 219 235 229 223 219 225 222 230 239 209
16 14 14 10 6 2 360 359 355 350 347 346 342 338 332 327 323 315 306 298 287 276 271 269 266 261 251 243 251 251 244 231 225 224 220 219 217 217 221 224 226 228 220 233 217 230 204
15 12 10 8 6 3 0 357 352 350 348 347 343 340 333 324 315 310 306 304 299 291 279 270 272 268 263 256 252 244 228 218 213 217 225 220 215 225 219 228 220 220 223 216 210 218 206
15 12 9 8 8 3 359 355 353 350 349 347 344 338 329 321 319 312 307 302 299 299 284 264 262 240 264 264 240 231 228 227 215 228 217 218 206 219 218 223 217 210 211 212 201 207 204
14 11 10 7 6 2 359 355 353 350 349 346 342 336 328 328 322 318 306 300 312 298 285 230 234 262 250 245 231 219 208 213 224 210 197 199 199 206 218 212 208 200 217 199 210 192 218
13 10 8 6 4 0 359 356 353 350 348 345 341 335 336 332 326 318 311 322 239 193 199 201 204 220 351 175 151 192 187 190 192 204 195 191 189 205 200 216 208 198 204 207 212 190 204
12 10 7 6 4 360 358 356 352 349 348 346 342 341 340 340 341 356 14 318 4 342 281 248 257 245 269 112 32 202 172 163 190 198 193 179 209 211 199 213 223 204 197 217 198 196 198
11 11 7 5 4 1 359 356 352 349 349 350 348 346 342 351 37 20 25 327 320 325 263 80 273 222 228 239 167 276 171 181 189 193 192 193 194 227 200 203 220 222 199 216 194 210 188
12 11 8 4 3 2 360 357 352 351 352 352 350 354 351 14 25 10 16 2 322 296 281 14 349 274 217 261 73 248 186 160 179 209 186 198 192 208 198 196 211 210 227 206 213 165 192
11 10 8 4 2 3 360 357 354 353 353 353 352 360 6 21 8 360 320 327 355 211 350 12 330 258 147 102 156 119 160 206 195 199 173 191 186 189 203 198 204 222 205 219 216 182 193
9 9 9 5 2 2 360 358 356 355 353 354 342 357 12 4 349 349 340 311 306 254 36 11 325 215 162 122 185 147 191 241 238 159 202 154 166 201 211 185 202 251 198 199 205 202 212
6 7 7 5 3 2 1 359 356 356 353 355 350 4 10 8 338 340 332 304 267 12 339 352 355 162 124 193 135 177 198 221 208 167 185 165 149 190 238 179 206 214 184 189 196 199 212
2 5 7 5 3 2 2 358 357 357 354 354 353 14 358 347 329 326 326 260 17 356 356 321 263 147 172 166 166 178 204 180 173 183 175 162 164 168 212 206 185 192 187 189 183 198 199
360 1 5 4 3 1 1 359 357 358 357 350 358 1 1 348 342 335 305 25 5 352 321 331 301 184 123 220 169 203 162 189 164 216 169 157 170 171 201 203 208 201 189 195 188 199 204
359 360 1 2 3 1 0 360 357 358 360 355 5 324 359 350 330 332 355 358 353 351 328 282 301 100 199 189 167 205 127 203 187 197 255 203 148 189 178 214 210 230 204 170 225 194 201
357 358 358 0 1 1 359 359 359 356 1 4 348 320 350 340 322 26 35 3 323 337 357 310 319 295 219 153 167 182 176 177 150 224 233 171 156 163 175 205 192 206 225 230 244 211 192
354 354 355 355 358 360 359 359 360 360 358 13 339 2 345 351 43 2 23 311 347 339 10 326 280 312 317 151 178 190 154 161 212 159 218 17 160 162 179 197 198 213 206 217 198 181 214
348 349 349 350 353 356 358 359 360 4 2 356 340 322 2 28 41 8 348 355 4 0 359 346 317 327 297 170 182 181 166 154 203 182 323 160 152 161 179 199 186 219 208 198 256 277 210
341 344 345 346 348 350 355 357 360 3 12 7 341 338 359 350 39 14 358 1 9 6 339 335 283 310 316 169 179 173 173 154 189 135 325 21 173 182 183 192 179 205 201 186 218 207 215
332 337 343 343 344 346 349 353 359 4 16 12 10 23 9 312 350 332 20 5 0 6 320 348 305 348 338 275 171 172 145 170 175 111 217 285 189 205 199 166 186 190 191 189 195 211 223
328 328 334 340 342 345 345 349 356 3 23 12 357 353 334 289 295 309 44 8 358 349 322 345 345 330 328 28 1 22 334 163 180 148 245 173 270 260 185 158 187 184 181 193 197 207 143
325 325 325 335 341 341 340 346 351 359 24 10 352 337 297 290 321 317 11 338 346 352 308 329 332 322 325 352 322 297 299 297 306 180 208 233 201 225 159 168 182 187 185 192 196 213 222
317 316 319 327 335 337 337 339 345 355 19 359 335 336 311 312 320 344 319 327 332 339 303 309 319 304 334 317 304 267 268 259 239 234 198 236 228 95 172 205 172 168 200 193 196 201 166
315 316 320 322 329 333 332 334 335 343 359 1 330 335 320 299 314 296 340 322 310 328 326 312 332 306 306 306 266 223 219 229 216 207 213 224 247 113 278 159 64 310 179 161 179 157 137
312 315 320 322 322 325 329 322 328 330 337 352 315 291 314 304 31 329 314 291 334 334 317 312 333 323 303 276 255 217 189 202 202 191 195 221 266 269 208 208 320 103 144 115 237 157 174
312 314 317 319 319 319 322 316 320 319 324 329 304 294 303 278 281 328 310 321 318 309 298 302 341 316 345 307 241 234 220 210 191 195 187 211 226 224 246 224 156 342 112 138 219 128 3
311 313 314 313 316 311 307 303 311 315 312 316 299 289 282 276 292 279 277 286 288 276 274 316 324 214 282 297 282 288 255 248 181 231 185 204 202 226 234 234 235 148 147 225 98 154 144
309 309 309 312 313 308 302 299 304 310 300 294 303 291 295 259 272 288 281 269 258 259 275 258 291 295 322 303 332 306 306 296 264 205 263 203 209 205 244 234 74 59 77 107 130 137 140
Wind_Speed_850mb
48 47 46 47 49 49 47 47 48 50 51 50 51 52 51 50 48 48 47 44 43 42 43 43 45 36 25 34 52 18 35 12 8 35 44 49 55 54 53 55 62 63 54 73 71 66 33
50 49 50 51 50 51 52 51 51 53 54 55 56 56 56 57 55 54 50 46 48 45 44 40 34 30 34 47 38 41 44 34 30 39 43 52 49 56 48 56 55 60 70 58 78 65 40
55 53 53 52 53 53 55 54 55 57 58 58 60 60 61 60 60 57 52 49 47 48 48 44 39 33 47 63 22 25 25 36 33 35 48 48 56 51 60 48 67 69 55 59 59 54 36
59 57 55 54 55 57 59 60 62 64 64 66 70 72 69 66 62 59 56 54 53 51 44 38 32 36 47 30 44 59 28 29 25 28 34 35 49 51 57 49 64 57 55 52 53 50 53
61 60 59 59 59 60 61 64 66 67 72 76 77 77 74 67 64 61 56 54 54 46 41 32 28 32 48 26 42 53 58 48 32 25 27 31 47 50 50 47 46 44 45 60 58 59 45
63 63 62 62 61 61 64 66 68 72 77 82 82 78 74 63 60 54 46 43 39 22 15 19 30 19 49 34 29 32 51 46 45 33 27 37 42 32 40 43 49 58 63 60 55 63 60
67 66 65 65 66 67 68 69 72 76 83 85 82 75 64 65 60 52 37 24 18 13 21 21 27 35 20 18 16 22 41 41 34 43 33 51 31 47 62 59 59 54 58 58 58 48 60
68 68 68 67 67 69 70 72 74 81 85 84 74 60 67 70 48 27 11 5 8 11 17 29 31 38 32 17 8 10 40 32 28 35 39 38 41 50 51 53 57 57 63 59 59 50 57
70 69 69 68 68 69 72 73 76 81 83 78 61 63 65 50 37 28 16 6 7 9 9 10 25 37 30 32 10 20 48 30 28 35 42 37 44 54 52 51 51 50 56 59 55 50 54
74 71 70 70 70 72 72 72 77 81 82 68 58 62 57 29 20 20 14 10 6 6 9 11 17 11 28 8 3 22 33 30 19 39 36 26 42 40 48 51 50 46 44 56 46 41 29
77 73 70 71 72 73 73 73 78 81 79 60 50 56 46 45 19 25 17 10 12 7 4 13 8 6 23 2 17 11 29 10 31 36 30 31 39 40 44 46 47 31 47 41 40 47 41
76 75 72 72 74 76 75 77 79 79 77 56 42 51 44 30 16 24 17 13 14 6 12 10 9 10 27 4 17 36 13 21 42 44 42 20 40 30 28 35 38 18 38 27 32 31 30
73 76 74 72 74 77 77 79 80 79 74 52 38 44 48 26 28 24 20 20 7 11 21 14 8 14 16 17 27 23 20 20 23 34 25 29 37 32 31 37 35 31 38 26 23 21 24
72 75 76 73 75 77 78 77 80 81 71 51 29 32 31 34 28 23 23 6 14 21 11 7 11 24 10 15 39 36 27 19 37 36 28 30 40 43 41 41 38 47 46 27 38 26 32
72 76 79 76 74 77 78 80 81 82 72 49 26 20 28 31 26 24 22 15 12 11 17 19 18 16 15 18 18 29 32 19 16 30 15 30 34 48 40 33 38 42 47 42 38 42 33
72 76 80 80 76 76 79 80 80 82 75 44 28 14 38 31 24 26 13 11 16 19 22 9 8 8 13 25 33 27 12 25 24 13 11 12 28 37 46 45 43 36 37 10 20 38 24
70 75 78 80 79 75 79 78 79 82 76 32 24 14 39 31 23 14 7 14 17 32 28 8 14 8 25 24 30 32 32 20 24 18 31 15 29 26 42 36 35 30 26 21 22 10 29
69 73 75 79 79 77 76 76 74 78 80 39 23 10 37 35 22 15 14 20 22 28 30 10 15 20 23 26 26 21 19 12 17 15 6 5 15 26 44 31 34 32 40 26 12 13 4
67 71 75 78 78 75 74 73 70 70 63 46 28 12 20 43 13 16 23 28 19 26 20 16 13 18 25 16 16 14 15 20 20 22 6 14 16 27 32 24 34 29 28 23 14 11 11
69 72 77 75 75 71 71 69 66 64 49 31 22 11 13 11 22 19 23 24 25 21 13 21 13 17 27 23 17 18 22 23 25 18 12 11 17 29 23 31 31 36 35 31 19 9 14
68 72 72 73 70 68 65 64 62 59 46 38 21 11 10 12 16 25 21 22 25 23 12 20 8 25 18 12 21 24 21 18 33 10 9 10 25 29 23 32 35 36 36 38 30 28 28
67 67 71 64 65 64 59 59 58 56 39 21 24 16 22 32 26 25 13 23 26 28 8 16 19 34 24 9 17 12 21 25 23 16 17 4 10 12 27 33 33 30 33 39 35 35 31
69 66 66 63 61 60 54 50 52 50 44 19 28 18 13 29 14 15 16 24 23 25 6 13 25 25 19 18 30 29 23 34 20 22 19 14 12 20 18 38 37 34 36 36 31 30 19
67 62 58 57 55 57 51 44 44 40 35 20 20 21 17 16 19 19 26 27 23 20 15 24 17 14 11 41 41 29 31 26 18 23 24 19 20 4 18 22 22 13 23 33 33 25 22
63 56 52 54 52 52 49 38 38 32 28 19 18 15 13 16 35 23 24 27 28 22 18 18 20 17 35 31 13 12 14 18 30 31 18 25 21 13 7 17 9 22 14 14 14 20 1
58 55 53 49 51 46 43 35 32 29 22 19 16 10 14 22 4 32 31 32 13 17 14 9 27 22 15 7 10 14 12 20 24 20 27 25 19 19 23 10 3 3 26 8 13 8 21
53 50 49 50 45 46 39 35 29 27 20 19 19 26 11 19 27 25 27 23 21 12 10 18 15 12 9 5 10 12 17 30 24 39 28 22 23 20 19 7 19 14 23 16 19 10 10
52 51 50 48 42 41 33 31 28 26 18 17 20 29 17 20 63 30 27 37 28 22 5 14 17 4 4 4 6 5 8 13 12 32 41 26 24 21 24 19 16 22 16 5 15 25 27
58 53 48 47 40 38 36 32 31 27 17 15 23 26 35 35 50 61 57 54 53 47 23 6 11 14 5 5 5 8 7 6 18 11 11 29 25 20 17 10 14 21 26 25 22 33 35
Wind_Direction_850mb
18 14 11 8 7 6 3 359 355 352 347 341 337 333 327 320 315 307 300 290 286 285 286 285 276 271 282 245 242 250 300 343 167 199 211 211 216 217 221 218 219 223 223 226 238 236 221
17 14 13 11 7 4 1 1 356 351 347 342 338 335 332 327 322 314 306 297 284 278 276 277 279 267 252 252 253 257 252 251 230 218 216 216 220 219 235 229 223 219 225 222 230 239 209
16 14 14 10 6 2 360 359 355 350 347 346 342 338 332 327 323 315 306 298 287 276 271 269 266 261 251 243 251 251 244 231 225 224 220 219 217 217 221 224 226 228 220 233 217 230 204
15 12 10 8 6 3 0 357 352 350 348 347 343 340 333 324 315 310 306 304 299 291 279 270 272 268 263 256 252 244 228 218 213 217 225 220 215 225 219 228 220 220 223 216 210 218 206
15 12 9 8 8 3 359 355 353 350 349 347 344 338 329 321 319 312 307 302 299 299 284 264 262 240 264 264 240 231 228 227 215 228 217 218 206 219 218 223 217 210 211 212 201 207 204
14 11 10 7 6 2 359 355 353 350 349 346 342 336 328 328 322 318 306 300 312 298 285 230 234 262 250 245 231 219 208 213 224 210 197 199 199 206 218 212 208 200 217 199 210 192 218
13 10 8 6 4 0 359 356 353 350 348 345 341 335 336 332 326 318 311 322 239 193 199 201 204 220 351 175 151 192 187 190 192 204 195 191 189 205 200 216 208 198 204 207 212 190 204
12 10 7 6 4 360 358 356 352 349 348 346 342 341 340 340 341 356 14 318 4 342 281 248 257 245 269 112 32 202 172 163 190 198 193 179 209 211 199 213 223 204 197 217 198 196 198
11 11 7 5 4 1 359 356 352 349 349 350 348 346 342 351 37 20 25 327 320 325 263 80 273 222 228 239 167 276 171 181 189 193 192 193 194 227 200 203 220 222 199 216 194 210 188
12 11 8 4 3 2 360 357 352 351 352 352 350 354 351 14 25 10 16 2 322 296 281 14 349 274 217 261 73 248 186 160 179 209 186 198 192 208 198 196 211 210 227 206 213 165 192
11 10 8 4 2 3 360 357 354 353 353 353 352 360 6 21 8 360 320 327 355 211 350 12 330 258 147 102 156 119 160 206 195 199 173 191 186 189 203 198 204 222 205 219 216 182 193
9 9 9 5 2 2 360 358 356 355 353 354 342 357 12 4 349 349 340 311 306 254 36 11 325 215 162 122 185 147 191 241 238 159 202 154 166 201 211 185 202 251 198 199 205 202 212
6 7 7 5 3 2 1 359 356 356 353 355 350 4 10 8 338 340 332 304 267 12 339 352 355 162 124 193 135 177 198 221 208 167 185 165 149 190 238 179 206 214 184 189 196 199 212
2 5 7 5 3 2 2 358 357 357 354 354 353 14 358 347 329 326 326 260 17 356 356 321 263 147 172 166 166 178 204 180 173 183 175 162 164 168 212 206 185 192 187 189 183 198 199
360 1 5 4 3 1 1 359 357 358 357 350 358 1 1 348 342 335 305 25 5 352 321 331 301 184 123 220 169 203 162 189 164 216 169 157 170 171 201 203 208 201 189 195 188 199 204
359 360 1 2 3 1 0 360 357 358 360 355 5 324 359 350 330 332 355 358 353 351 328 282 301 100 199 189 167 205 127 203 187 197 255 203 148 189 178 214 210 230 204 170 225 194 201
357 358 358 0 1 1 359 359 359 356 1 4 348 320 350 340 322 26 35 3 323 337 357 310 319 295 219 153 167 182 176 177 150 224 233 171 156 163 175 205 192 206 225 230 244 211 192
354 354 355 355 358 360 359 359 360 360 358 13 339 2 345 351 43 2 23 311 347 339 10 326 280 312 317 151 178 190 154 161 212 159 218 17 160 162 179 197 198 213 206 217 198 181 214
348 349 349 350 353 356 358 359 360 4 2 356 340 322 2 28 41 8 348 355 4 0 359 346 317 327 297 170 182 181 166 154 203 182 323 160 152 161 179 199 186 219 208 198 256 277 210
341 344 345 346 348 350 355 357 360 3 12 7 341 338 359 350 39 14 358 1 9 6 339 335 283 310 316 169 179 173 173 154 189 135 325 21 173 182 183 192 179 205 201 186 218 207 215
332 337 343 343 344 346 349 353 359 4 16 12 10 23 9 312 350 332 20 5 0 6 320 348 305 348 338 275 171 172 145 170 175 111 217 285 189 205 199 166 186 190 191 189 195 211 223
328 328 334 340 342 345 345 349 356 3 23 12 357 353 334 289 295 309 44 8 358 349 322 345 345 330 328 28 1 22 334 163 180 148 245 173 270 260 185 158 187 184 181 193 197 207 143
325 325 325 335 341 341 340 346 351 359 24 10 352 337 297 290 321 317 11 338 346 352 308 329 332 322 325 352 322 297 299 297 306 180 208 233 201 225 159 168 182 187 185 192 196 213 222
317 316 319 327 335 337 337 339 345 355 19 359 335 336 311 312 320 344 319 327 332 339 303 309 319 304 334 317 304 267 268 259 239 234 198 236 228 95 172 205 172 168 200 193 196 201 166
315 316 320 322 329 333 332 334 335 343 359 1 330 335 320 299 314 296 340 322 310 328 326 312 332 306 306 306 266 223 219 229 216 207 213 224 247 113 278 159 64 310 179 161 179 157 137
312 315 320 322 322 325 329 322 328 330 337 352 315 291 314 304 31 329 314 291 334 334 317 312 333 323 303 276 255 217 189 202 202 191 195 221 266 269 208 208 320 103 144 115 237 157 174
312 314 317 319 319 319 322 316 320 319 324 329 304 294 303 278 281 328 310 321 318 309 298 302 341 316 345 307 241 234 220 210 191 195 187 211 226 224 246 224 156 342 112 138 219 128 3
311 313 314 313 316 311 307 303 311 315 312 316 299 289 282 276 292 279 277 286 288 276 274 316 324 214 282 297 282 288 255 248 181 231 185 204 202 226 234 234 235 148 147 225 98 154 144
309 309 309 312 313 308 302 299 304 310 300 294 303 291 295 259 272 288 281 269 258 259 275 258 291 295 322 303 332 306 306 296 264 205 263 203 209 205 244 234 74 59 77 107 130 137 140